Location: Be?i?
(36.9044°N, 30.1006°E)
Time: 12:22:29
(UTC+00:00)

Cosmos 1626 Rocket - Pass Details

Date: 05 August 2024
Orbit: 600 x 625 km, 82.5° (Epoch: 09 September)

Event Time Altitude Azimuth Distance (km) Brightness Sun altitude
Exits shadow 18:25:29 28° 125° (SE) 1,146 4.3 -15.5°
Maximum altitude 18:26:44 33° 91° (E) 1,014 4.2 -15.7°
Drops below altitude 10° 18:30:37 10° 27° (NNE) 1,957 6.2 -16.3°
Sets 18:33:00 0° 18° (NNE) 2,868 7.2 -16.7°
